iso_date,epoch_date,Year,Hour,Min,DOY,POS_DOY,Lat,Lon,BP,Ts,Ta,has_bp,has_ts,has_ta,BuoyID,Buoy_Type,Buoy_Owner,Logistics,Hemisphere
2019-11-18T06:00:00Z,1574056800,2019,6,0,322.25,322.25,66.688,-34.137,-999.00,-1.12,-999.0,no,yes,no,300234065615270,SVPGHI,AOML,BJARNI_SAEMUN,North
2019-11-18T07:00:02Z,1574060403,2019,7,0,322.2917,322.2917,66.69,-34.153,-999.00,-0.97,-999.0,no,yes,no,300234065615270,SVPGHI,AOML,BJARNI_SAEMUN,North
2019-11-18T07:59:57Z,1574063997,2019,8,0,322.3333,322.3333,66.689,-34.159,-999.00,-1.52,-999.0,no,yes,no,300234065615270,SVPGHI,AOML,BJARNI_SAEMUN,North
2019-11-18T09:00:00Z,1574067600,2019,9,0,322.375,322.375,66.689,-34.161,-999.00,-1.63,-999.0,no,yes,no,300234065615270,SVPGHI,AOML,BJARNI_SAEMUN,North
2019-11-18T09:29:57Z,1574069397,2019,9,30,322.3958,322.3958,66.689,-34.161,-999.00,-1.64,-999.0,no,yes,no,300234065615270,SVPGHI,AOML,BJARNI_SAEMUN,North
2019-11-18T10:00:02Z,1574071203,2019,10,0,322.4167,322.4167,66.689,-34.16,-999.00,-1.62,-999.0,no,yes,no,300234065615270,SVPGHI,AOML,BJARNI_SAEMUN,North
2019-11-18T10:59:57Z,1574074797,2019,11,0,322.4583,322.4583,66.689,-34.161,-999.00,-1.66,-999.0,no,yes,no,300234065615270,SVPGHI,AOML,BJARNI_SAEMUN,North
2019-11-18T12:00:00Z,1574078400,2019,12,0,322.5,322.5,66.69,-34.162,-999.00,-1.62,-999.0,no,yes,no,300234065615270,SVPGHI,AOML,BJARNI_SAEMUN,North
2019-11-18T12:02:00Z,1574078521,2019,12,2,322.5014,322.5014,66.69,-34.161,-999.00,-1.62,-999.0,no,yes,no,300234065615270,SVPGHI,AOML,BJARNI_SAEMUN,North
2019-11-18T13:00:02Z,1574082003,2019,13,0,322.5417,322.5417,66.694,-34.159,-999.00,-1.79,-999.0,no,yes,no,300234065615270,SVPGHI,AOML,BJARNI_SAEMUN,North
2019-11-18T13:59:57Z,1574085597,2019,14,0,322.5833,322.5833,66.697,-34.16,-999.00,-1.74,-999.0,no,yes,no,300234065615270,SVPGHI,AOML,BJARNI_SAEMUN,North
2019-11-18T15:00:00Z,1574089200,2019,15,0,322.625,322.625,66.698,-34.163,-999.00,-1.78,-999.0,no,yes,no,300234065615270,SVPGHI,AOML,BJARNI_SAEMUN,North
2019-11-18T16:00:02Z,1574092803,2019,16,0,322.6667,322.6667,66.7,-34.177,-999.00,-1.77,-999.0,no,yes,no,300234065615270,SVPGHI,AOML,BJARNI_SAEMUN,North
2019-11-18T16:59:57Z,1574096397,2019,17,0,322.7083,322.7083,66.699,-34.18,-999.00,-1.77,-999.0,no,yes,no,300234065615270,SVPGHI,AOML,BJARNI_SAEMUN,North
2019-11-18T18:00:00Z,1574100000,2019,18,0,322.75,322.75,66.701,-34.183,-999.00,-1.76,-999.0,no,yes,no,300234065615270,SVPGHI,AOML,BJARNI_SAEMUN,North
2019-11-18T19:00:02Z,1574103603,2019,19,0,322.7917,322.7917,66.701,-34.186,-999.00,-1.77,-999.0,no,yes,no,300234065615270,SVPGHI,AOML,BJARNI_SAEMUN,North
2019-11-18T19:59:57Z,1574107197,2019,20,0,322.8333,322.8333,66.7,-34.187,-999.00,-1.79,-999.0,no,yes,no,300234065615270,SVPGHI,AOML,BJARNI_SAEMUN,North
2019-11-18T21:00:00Z,1574110800,2019,21,0,322.875,322.875,66.702,-34.189,-999.00,-1.76,-999.0,no,yes,no,300234065615270,SVPGHI,AOML,BJARNI_SAEMUN,North
2019-11-18T22:00:02Z,1574114403,2019,22,0,322.9167,322.9167,66.701,-34.189,-999.00,-1.75,-999.0,no,yes,no,300234065615270,SVPGHI,AOML,BJARNI_SAEMUN,North
2019-11-18T22:59:57Z,1574117997,2019,23,0,322.9583,322.9583,66.701,-34.186,-999.00,-1.75,-999.0,no,yes,no,300234065615270,SVPGHI,AOML,BJARNI_SAEMUN,North
2019-11-19T00:00:00Z,1574121600,2019,0,0,323.0,323.0,66.701,-34.189,-999.00,-1.75,-999.0,no,yes,no,300234065615270,SVPGHI,AOML,BJARNI_SAEMUN,North
2019-11-19T01:00:02Z,1574125203,2019,1,0,323.0417,323.0417,66.701,-34.187,-999.00,-1.75,-999.0,no,yes,no,300234065615270,SVPGHI,AOML,BJARNI_SAEMUN,North
2019-11-19T03:00:00Z,1574132400,2019,3,0,323.125,323.125,66.701,-34.188,-999.00,-1.74,-999.0,no,yes,no,300234065615270,SVPGHI,AOML,BJARNI_SAEMUN,North
2019-11-19T04:00:02Z,1574136003,2019,4,0,323.1667,323.1667,66.701,-34.191,-999.00,-1.76,-999.0,no,yes,no,300234065615270,SVPGHI,AOML,BJARNI_SAEMUN,North
2019-11-19T04:59:57Z,1574139597,2019,5,0,323.2083,323.2083,66.701,-34.191,-999.00,-1.75,-999.0,no,yes,no,300234065615270,SVPGHI,AOML,BJARNI_SAEMUN,North
2019-11-19T06:00:00Z,1574143200,2019,6,0,323.25,323.25,66.703,-34.189,-999.00,-1.74,-999.0,no,yes,no,300234065615270,SVPGHI,AOML,BJARNI_SAEMUN,North
2019-11-19T07:00:02Z,1574146803,2019,7,0,323.2917,323.2917,66.702,-34.192,-999.00,-1.74,-999.0,no,yes,no,300234065615270,SVPGHI,AOML,BJARNI_SAEMUN,North
2019-11-19T07:59:57Z,1574150397,2019,8,0,323.3333,323.3333,66.702,-34.191,-999.00,-1.74,-999.0,no,yes,no,300234065615270,SVPGHI,AOML,BJARNI_SAEMUN,North
2019-11-19T09:00:00Z,1574154000,2019,9,0,323.375,323.375,66.702,-34.19,-999.00,-1.7,-999.0,no,yes,no,300234065615270,SVPGHI,AOML,BJARNI_SAEMUN,North
2019-11-19T10:00:02Z,1574157603,2019,10,0,323.4167,323.4167,66.702,-34.191,-999.00,-1.64,-999.0,no,yes,no,300234065615270,SVPGHI,AOML,BJARNI_SAEMUN,North
2019-11-19T10:59:57Z,1574161197,2019,11,0,323.4583,323.4583,66.701,-34.191,-999.00,-1.66,-999.0,no,yes,no,300234065615270,SVPGHI,AOML,BJARNI_SAEMUN,North
2019-11-19T12:00:00Z,1574164800,2019,12,0,323.5,323.5,66.702,-34.192,-999.00,-1.66,-999.0,no,yes,no,300234065615270,SVPGHI,AOML,BJARNI_SAEMUN,North
2019-11-19T13:00:02Z,1574168403,2019,13,0,323.5417,323.5417,66.701,-34.188,-999.00,-1.67,-999.0,no,yes,no,300234065615270,SVPGHI,AOML,BJARNI_SAEMUN,North
2019-11-19T13:59:57Z,1574171997,2019,14,0,323.5833,323.5833,66.701,-34.184,-999.00,-1.65,-999.0,no,yes,no,300234065615270,SVPGHI,AOML,BJARNI_SAEMUN,North
2019-11-19T15:00:00Z,1574175600,2019,15,0,323.625,323.625,66.701,-34.18,-999.00,-1.69,-999.0,no,yes,no,300234065615270,SVPGHI,AOML,BJARNI_SAEMUN,North
2019-11-19T16:00:02Z,1574179203,2019,16,0,323.6667,323.6667,66.701,-34.18,-999.00,-1.71,-999.0,no,yes,no,300234065615270,SVPGHI,AOML,BJARNI_SAEMUN,North
2019-11-19T16:59:57Z,1574182797,2019,17,0,323.7083,323.7083,66.699,-34.181,-999.00,-1.62,-999.0,no,yes,no,300234065615270,SVPGHI,AOML,BJARNI_SAEMUN,North
2019-11-19T19:00:02Z,1574190003,2019,19,0,323.7917,323.7917,66.699,-34.178,-999.00,-1.55,-999.0,no,yes,no,300234065615270,SVPGHI,AOML,BJARNI_SAEMUN,North
2019-11-19T19:55:03Z,1574193303,2019,19,55,323.8299,323.8299,66.698,-34.178,-999.00,-1.61,-999.0,no,yes,no,300234065615270,SVPGHI,AOML,BJARNI_SAEMUN,North
2019-11-19T19:59:57Z,1574193597,2019,20,0,323.8333,323.8333,66.698,-34.178,-999.00,-1.58,-999.0,no,yes,no,300234065615270,SVPGHI,AOML,BJARNI_SAEMUN,North
2019-11-19T21:00:00Z,1574197200,2019,21,0,323.875,323.875,66.702,-34.18,-999.00,-1.39,-999.0,no,yes,no,300234065615270,SVPGHI,AOML,BJARNI_SAEMUN,North
2019-11-19T22:00:02Z,1574200803,2019,22,0,323.9167,323.9167,66.699,-34.18,-999.00,-1.51,-999.0,no,yes,no,300234065615270,SVPGHI,AOML,BJARNI_SAEMUN,North
2019-11-19T22:59:57Z,1574204397,2019,23,0,323.9583,323.9583,66.7,-34.179,-999.00,-1.53,-999.0,no,yes,no,300234065615270,SVPGHI,AOML,BJARNI_SAEMUN,North
2019-11-20T00:00:00Z,1574208000,2019,0,0,324.0,324.0,66.699,-34.179,-999.00,-1.64,-999.0,no,yes,no,300234065615270,SVPGHI,AOML,BJARNI_SAEMUN,North
2019-11-20T00:08:03Z,1574208484,2019,0,8,324.0056,324.0056,66.699,-34.179,-999.00,-1.69,-999.0,no,yes,no,300234065615270,SVPGHI,AOML,BJARNI_SAEMUN,North
2019-11-20T01:00:02Z,1574211603,2019,1,0,324.0417,324.0417,66.7,-34.18,-999.00,-1.64,-999.0,no,yes,no,300234065615270,SVPGHI,AOML,BJARNI_SAEMUN,North
2019-11-20T01:59:57Z,1574215197,2019,2,0,324.0833,324.0833,66.7,-34.181,-999.00,-1.71,-999.0,no,yes,no,300234065615270,SVPGHI,AOML,BJARNI_SAEMUN,North
2019-11-20T03:00:00Z,1574218800,2019,3,0,324.125,324.125,66.699,-34.179,-999.00,-1.64,-999.0,no,yes,no,300234065615270,SVPGHI,AOML,BJARNI_SAEMUN,North
2019-11-20T04:00:02Z,1574222403,2019,4,0,324.1667,324.1667,66.7,-34.176,-999.00,-1.7,-999.0,no,yes,no,300234065615270,SVPGHI,AOML,BJARNI_SAEMUN,North
2019-11-20T04:59:57Z,1574225997,2019,5,0,324.2083,324.2083,66.699,-34.176,-999.00,-1.7,-999.0,no,yes,no,300234065615270,SVPGHI,AOML,BJARNI_SAEMUN,North
2019-11-20T06:00:00Z,1574229600,2019,6,0,324.25,324.25,66.7,-34.178,-999.00,-1.69,-999.0,no,yes,no,300234065615270,SVPGHI,AOML,BJARNI_SAEMUN,North
2019-11-20T07:00:02Z,1574233203,2019,7,0,324.2917,324.2917,66.7,-34.185,-999.00,-1.71,-999.0,no,yes,no,300234065615270,SVPGHI,AOML,BJARNI_SAEMUN,North
2019-11-20T07:59:57Z,1574236797,2019,8,0,324.3333,324.3333,66.701,-34.187,-999.00,-1.52,-999.0,no,yes,no,300234065615270,SVPGHI,AOML,BJARNI_SAEMUN,North
2019-11-20T09:00:00Z,1574240400,2019,9,0,324.375,324.375,66.702,-34.189,-999.00,-1.63,-999.0,no,yes,no,300234065615270,SVPGHI,AOML,BJARNI_SAEMUN,North
2019-11-20T10:00:02Z,1574244003,2019,10,0,324.4167,324.4167,66.702,-34.191,-999.00,-1.64,-999.0,no,yes,no,300234065615270,SVPGHI,AOML,BJARNI_SAEMUN,North
2019-11-20T10:59:57Z,1574247597,2019,11,0,324.4583,324.4583,66.702,-34.192,-999.00,-1.64,-999.0,no,yes,no,300234065615270,SVPGHI,AOML,BJARNI_SAEMUN,North
2019-11-20T12:00:00Z,1574251200,2019,12,0,324.5,324.5,66.704,-34.194,-999.00,-1.62,-999.0,no,yes,no,300234065615270,SVPGHI,AOML,BJARNI_SAEMUN,North
2019-11-20T13:00:02Z,1574254803,2019,13,0,324.5417,324.5417,66.703,-34.194,-999.00,-1.59,-999.0,no,yes,no,300234065615270,SVPGHI,AOML,BJARNI_SAEMUN,North
2019-11-20T13:59:57Z,1574258397,2019,14,0,324.5833,324.5833,66.703,-34.193,-999.00,-1.63,-999.0,no,yes,no,300234065615270,SVPGHI,AOML,BJARNI_SAEMUN,North
2019-11-20T15:00:00Z,1574262000,2019,15,0,324.625,324.625,66.705,-34.198,-999.00,-1.65,-999.0,no,yes,no,300234065615270,SVPGHI,AOML,BJARNI_SAEMUN,North
2019-11-20T16:00:02Z,1574265603,2019,16,0,324.6667,324.6667,66.704,-34.194,-999.00,-1.66,-999.0,no,yes,no,300234065615270,SVPGHI,AOML,BJARNI_SAEMUN,North
2019-11-20T16:59:57Z,1574269197,2019,17,0,324.7083,324.7083,66.704,-34.194,-999.00,-1.66,-999.0,no,yes,no,300234065615270,SVPGHI,AOML,BJARNI_SAEMUN,North
2019-11-20T18:00:00Z,1574272800,2019,18,0,324.75,324.75,66.704,-34.194,-999.00,-1.66,-999.0,no,yes,no,300234065615270,SVPGHI,AOML,BJARNI_SAEMUN,North
2019-11-20T19:00:02Z,1574276403,2019,19,0,324.7917,324.7917,66.704,-34.192,-999.00,-1.65,-999.0,no,yes,no,300234065615270,SVPGHI,AOML,BJARNI_SAEMUN,North
2019-11-20T19:59:57Z,1574279997,2019,20,0,324.8333,324.8333,66.704,-34.194,-999.00,-1.65,-999.0,no,yes,no,300234065615270,SVPGHI,AOML,BJARNI_SAEMUN,North
2019-11-20T21:00:00Z,1574283600,2019,21,0,324.875,324.875,66.704,-34.194,-999.00,-1.65,-999.0,no,yes,no,300234065615270,SVPGHI,AOML,BJARNI_SAEMUN,North
2019-11-20T22:00:02Z,1574287203,2019,22,0,324.9167,324.9167,66.704,-34.194,-999.00,-1.65,-999.0,no,yes,no,300234065615270,SVPGHI,AOML,BJARNI_SAEMUN,North
2019-11-20T22:59:57Z,1574290797,2019,23,0,324.9583,324.9583,66.704,-34.194,-999.00,-1.64,-999.0,no,yes,no,300234065615270,SVPGHI,AOML,BJARNI_SAEMUN,North
2019-11-21T00:00:00Z,1574294400,2019,0,0,325.0,325.0,66.704,-34.195,-999.00,-1.64,-999.0,no,yes,no,300234065615270,SVPGHI,AOML,BJARNI_SAEMUN,North
2019-11-21T01:00:02Z,1574298003,2019,1,0,325.0417,325.0417,66.704,-34.195,-999.00,-1.63,-999.0,no,yes,no,300234065615270,SVPGHI,AOML,BJARNI_SAEMUN,North
2019-11-21T01:59:57Z,1574301597,2019,2,0,325.0833,325.0833,66.703,-34.195,-999.00,-1.62,-999.0,no,yes,no,300234065615270,SVPGHI,AOML,BJARNI_SAEMUN,North
2019-11-21T04:00:02Z,1574308803,2019,4,0,325.1667,325.1667,66.704,-34.194,-999.00,-1.61,-999.0,no,yes,no,300234065615270,SVPGHI,AOML,BJARNI_SAEMUN,North
2019-11-21T04:59:57Z,1574312397,2019,5,0,325.2083,325.2083,66.704,-34.194,-999.00,-1.61,-999.0,no,yes,no,300234065615270,SVPGHI,AOML,BJARNI_SAEMUN,North
2019-11-21T06:00:00Z,1574316000,2019,6,0,325.25,325.25,66.703,-34.195,-999.00,-1.6,-999.0,no,yes,no,300234065615270,SVPGHI,AOML,BJARNI_SAEMUN,North
2019-11-21T07:00:02Z,1574319603,2019,7,0,325.2917,325.2917,66.704,-34.196,-999.00,-1.61,-999.0,no,yes,no,300234065615270,SVPGHI,AOML,BJARNI_SAEMUN,North
2019-11-21T07:59:57Z,1574323197,2019,8,0,325.3333,325.3333,66.704,-34.194,-999.00,-1.61,-999.0,no,yes,no,300234065615270,SVPGHI,AOML,BJARNI_SAEMUN,North
2019-11-21T09:00:00Z,1574326800,2019,9,0,325.375,325.375,66.704,-34.194,-999.00,-1.6,-999.0,no,yes,no,300234065615270,SVPGHI,AOML,BJARNI_SAEMUN,North
2019-11-21T10:00:02Z,1574330403,2019,10,0,325.4167,325.4167,66.703,-34.194,-999.00,-1.59,-999.0,no,yes,no,300234065615270,SVPGHI,AOML,BJARNI_SAEMUN,North
2019-11-21T10:59:57Z,1574333997,2019,11,0,325.4583,325.4583,66.704,-34.194,-999.00,-1.6,-999.0,no,yes,no,300234065615270,SVPGHI,AOML,BJARNI_SAEMUN,North
2019-11-21T12:00:00Z,1574337600,2019,12,0,325.5,325.5,66.704,-34.194,-999.00,-1.6,-999.0,no,yes,no,300234065615270,SVPGHI,AOML,BJARNI_SAEMUN,North
2019-11-21T13:00:02Z,1574341203,2019,13,0,325.5417,325.5417,66.704,-34.192,-999.00,-1.61,-999.0,no,yes,no,300234065615270,SVPGHI,AOML,BJARNI_SAEMUN,North
2019-11-21T13:59:57Z,1574344797,2019,14,0,325.5833,325.5833,66.703,-34.193,-999.00,-1.61,-999.0,no,yes,no,300234065615270,SVPGHI,AOML,BJARNI_SAEMUN,North
2019-11-21T15:00:00Z,1574348400,2019,15,0,325.625,325.625,66.704,-34.194,-999.00,-1.62,-999.0,no,yes,no,300234065615270,SVPGHI,AOML,BJARNI_SAEMUN,North
2019-11-21T16:00:02Z,1574352003,2019,16,0,325.6667,325.6667,66.703,-34.193,-999.00,-1.62,-999.0,no,yes,no,300234065615270,SVPGHI,AOML,BJARNI_SAEMUN,North
2019-11-21T16:59:57Z,1574355597,2019,17,0,325.7083,325.7083,66.704,-34.193,-999.00,-1.62,-999.0,no,yes,no,300234065615270,SVPGHI,AOML,BJARNI_SAEMUN,North
2019-11-21T18:00:00Z,1574359200,2019,18,0,325.75,325.75,66.703,-34.19,-999.00,-1.63,-999.0,no,yes,no,300234065615270,SVPGHI,AOML,BJARNI_SAEMUN,North
2019-11-21T19:00:02Z,1574362803,2019,19,0,325.7917,325.7917,66.702,-34.189,-999.00,-1.64,-999.0,no,yes,no,300234065615270,SVPGHI,AOML,BJARNI_SAEMUN,North
2019-11-21T19:59:57Z,1574366397,2019,20,0,325.8333,325.8333,66.702,-34.188,-999.00,-1.64,-999.0,no,yes,no,300234065615270,SVPGHI,AOML,BJARNI_SAEMUN,North
2019-11-21T21:00:00Z,1574370000,2019,21,0,325.875,325.875,66.702,-34.187,-999.00,-1.66,-999.0,no,yes,no,300234065615270,SVPGHI,AOML,BJARNI_SAEMUN,North
2019-11-21T22:00:02Z,1574373603,2019,22,0,325.9167,325.9167,66.702,-34.187,-999.00,-1.65,-999.0,no,yes,no,300234065615270,SVPGHI,AOML,BJARNI_SAEMUN,North
2019-11-21T22:59:57Z,1574377197,2019,23,0,325.9583,325.9583,66.702,-34.188,-999.00,-1.67,-999.0,no,yes,no,300234065615270,SVPGHI,AOML,BJARNI_SAEMUN,North
2019-11-22T00:00:00Z,1574380800,2019,0,0,326.0,326.0,66.702,-34.188,-999.00,-1.68,-999.0,no,yes,no,300234065615270,SVPGHI,AOML,BJARNI_SAEMUN,North
2019-11-22T01:00:02Z,1574384403,2019,1,0,326.0417,326.0417,66.703,-34.19,-999.00,-1.69,-999.0,no,yes,no,300234065615270,SVPGHI,AOML,BJARNI_SAEMUN,North
2019-11-22T03:00:00Z,1574391600,2019,3,0,326.125,326.125,66.702,-34.191,-999.00,-1.67,-999.0,no,yes,no,300234065615270,SVPGHI,AOML,BJARNI_SAEMUN,North
2019-11-22T04:00:02Z,1574395203,2019,4,0,326.1667,326.1667,66.703,-34.191,-999.00,-1.65,-999.0,no,yes,no,300234065615270,SVPGHI,AOML,BJARNI_SAEMUN,North
2019-11-22T04:59:57Z,1574398797,2019,5,0,326.2083,326.2083,66.702,-34.191,-999.00,-1.65,-999.0,no,yes,no,300234065615270,SVPGHI,AOML,BJARNI_SAEMUN,North
2019-11-22T06:00:00Z,1574402400,2019,6,0,326.25,326.25,66.702,-34.19,-999.00,-1.64,-999.0,no,yes,no,300234065615270,SVPGHI,AOML,BJARNI_SAEMUN,North
2019-11-22T07:00:02Z,1574406003,2019,7,0,326.2917,326.2917,66.702,-34.19,-999.00,-1.69,-999.0,no,yes,no,300234065615270,SVPGHI,AOML,BJARNI_SAEMUN,North
2019-11-22T07:59:57Z,1574409597,2019,8,0,326.3333,326.3333,66.701,-34.187,-999.00,-1.67,-999.0,no,yes,no,300234065615270,SVPGHI,AOML,BJARNI_SAEMUN,North
2019-11-22T09:00:00Z,1574413200,2019,9,0,326.375,326.375,66.7,-34.185,-999.00,-1.66,-999.0,no,yes,no,300234065615270,SVPGHI,AOML,BJARNI_SAEMUN,North
2019-11-22T10:00:02Z,1574416803,2019,10,0,326.4167,326.4167,66.7,-34.185,-999.00,-1.68,-999.0,no,yes,no,300234065615270,SVPGHI,AOML,BJARNI_SAEMUN,North
2019-11-22T10:59:57Z,1574420397,2019,11,0,326.4583,326.4583,66.701,-34.186,-999.00,-1.68,-999.0,no,yes,no,300234065615270,SVPGHI,AOML,BJARNI_SAEMUN,North
2019-11-22T12:00:00Z,1574424000,2019,12,0,326.5,326.5,66.701,-34.188,-999.00,-1.71,-999.0,no,yes,no,300234065615270,SVPGHI,AOML,BJARNI_SAEMUN,North
2019-11-22T13:00:02Z,1574427603,2019,13,0,326.5417,326.5417,66.701,-34.186,-999.00,-1.71,-999.0,no,yes,no,300234065615270,SVPGHI,AOML,BJARNI_SAEMUN,North
2019-11-22T13:59:57Z,1574431197,2019,14,0,326.5833,326.5833,66.7,-34.186,-999.00,-1.71,-999.0,no,yes,no,300234065615270,SVPGHI,AOML,BJARNI_SAEMUN,North
2019-11-22T15:00:00Z,1574434800,2019,15,0,326.625,326.625,66.701,-34.188,-999.00,-1.7,-999.0,no,yes,no,300234065615270,SVPGHI,AOML,BJARNI_SAEMUN,North
2019-11-22T16:00:02Z,1574438403,2019,16,0,326.6667,326.6667,66.701,-34.188,-999.00,-1.68,-999.0,no,yes,no,300234065615270,SVPGHI,AOML,BJARNI_SAEMUN,North
2019-11-22T16:59:57Z,1574441997,2019,17,0,326.7083,326.7083,66.701,-34.188,-999.00,-1.64,-999.0,no,yes,no,300234065615270,SVPGHI,AOML,BJARNI_SAEMUN,North
2019-11-22T18:00:00Z,1574445600,2019,18,0,326.75,326.75,66.7,-34.185,-999.00,-1.69,-999.0,no,yes,no,300234065615270,SVPGHI,AOML,BJARNI_SAEMUN,North
2019-11-22T19:00:02Z,1574449203,2019,19,0,326.7917,326.7917,66.7,-34.182,-999.00,-1.65,-999.0,no,yes,no,300234065615270,SVPGHI,AOML,BJARNI_SAEMUN,North
2019-11-22T19:59:57Z,1574452797,2019,20,0,326.8333,326.8333,66.699,-34.18,-999.00,-1.67,-999.0,no,yes,no,300234065615270,SVPGHI,AOML,BJARNI_SAEMUN,North
2019-11-22T21:00:00Z,1574456400,2019,21,0,326.875,326.875,66.699,-34.181,-999.00,-1.76,-999.0,no,yes,no,300234065615270,SVPGHI,AOML,BJARNI_SAEMUN,North
2019-11-22T22:00:02Z,1574460003,2019,22,0,326.9167,326.9167,66.698,-34.182,-999.00,-1.67,-999.0,no,yes,no,300234065615270,SVPGHI,AOML,BJARNI_SAEMUN,North
2019-11-22T22:59:57Z,1574463597,2019,23,0,326.9583,326.9583,66.699,-34.182,-999.00,-1.65,-999.0,no,yes,no,300234065615270,SVPGHI,AOML,BJARNI_SAEMUN,North
2019-11-23T00:00:00Z,1574467200,2019,0,0,327.0,327.0,66.699,-34.182,-999.00,-1.64,-999.0,no,yes,no,300234065615270,SVPGHI,AOML,BJARNI_SAEMUN,North
2019-11-23T01:00:02Z,1574470803,2019,1,0,327.0417,327.0417,66.702,-34.182,-999.00,-1.67,-999.0,no,yes,no,300234065615270,SVPGHI,AOML,BJARNI_SAEMUN,North
2019-11-23T01:59:57Z,1574474397,2019,2,0,327.0833,327.0833,66.698,-34.181,-999.00,-1.65,-999.0,no,yes,no,300234065615270,SVPGHI,AOML,BJARNI_SAEMUN,North
2019-11-23T03:00:00Z,1574478000,2019,3,0,327.125,327.125,66.698,-34.181,-999.00,-1.66,-999.0,no,yes,no,300234065615270,SVPGHI,AOML,BJARNI_SAEMUN,North
2019-11-23T04:00:02Z,1574481603,2019,4,0,327.1667,327.1667,66.699,-34.181,-999.00,-1.68,-999.0,no,yes,no,300234065615270,SVPGHI,AOML,BJARNI_SAEMUN,North
2019-11-23T04:59:57Z,1574485197,2019,5,0,327.2083,327.2083,66.698,-34.182,-999.00,-1.68,-999.0,no,yes,no,300234065615270,SVPGHI,AOML,BJARNI_SAEMUN,North
2019-11-23T06:00:00Z,1574488800,2019,6,0,327.25,327.25,66.698,-34.182,-999.00,-1.7,-999.0,no,yes,no,300234065615270,SVPGHI,AOML,BJARNI_SAEMUN,North
2019-11-23T07:00:02Z,1574492403,2019,7,0,327.2917,327.2917,66.699,-34.183,-999.00,-1.72,-999.0,no,yes,no,300234065615270,SVPGHI,AOML,BJARNI_SAEMUN,North
2019-11-23T07:59:57Z,1574495997,2019,8,0,327.3333,327.3333,66.699,-34.184,-999.00,-1.72,-999.0,no,yes,no,300234065615270,SVPGHI,AOML,BJARNI_SAEMUN,North
2019-11-23T09:00:00Z,1574499600,2019,9,0,327.375,327.375,66.699,-34.183,-999.00,-1.73,-999.0,no,yes,no,300234065615270,SVPGHI,AOML,BJARNI_SAEMUN,North
2019-11-23T10:00:02Z,1574503203,2019,10,0,327.4167,327.4167,66.699,-34.183,-999.00,-1.7,-999.0,no,yes,no,300234065615270,SVPGHI,AOML,BJARNI_SAEMUN,North
2019-11-23T10:59:57Z,1574506797,2019,11,0,327.4583,327.4583,66.699,-34.183,-999.00,-1.67,-999.0,no,yes,no,300234065615270,SVPGHI,AOML,BJARNI_SAEMUN,North
2019-11-23T12:00:00Z,1574510400,2019,12,0,327.5,327.5,66.699,-34.183,-999.00,-1.67,-999.0,no,yes,no,300234065615270,SVPGHI,AOML,BJARNI_SAEMUN,North
2019-11-23T13:00:02Z,1574514003,2019,13,0,327.5417,327.5417,66.699,-34.183,-999.00,-1.67,-999.0,no,yes,no,300234065615270,SVPGHI,AOML,BJARNI_SAEMUN,North
2019-11-23T13:59:57Z,1574517597,2019,14,0,327.5833,327.5833,66.699,-34.184,-999.00,-1.69,-999.0,no,yes,no,300234065615270,SVPGHI,AOML,BJARNI_SAEMUN,North
2019-11-23T15:00:00Z,1574521200,2019,15,0,327.625,327.625,66.699,-34.184,-999.00,-1.67,-999.0,no,yes,no,300234065615270,SVPGHI,AOML,BJARNI_SAEMUN,North
2019-11-23T16:00:02Z,1574524803,2019,16,0,327.6667,327.6667,66.7,-34.185,-999.00,-1.68,-999.0,no,yes,no,300234065615270,SVPGHI,AOML,BJARNI_SAEMUN,North
2019-11-23T16:59:57Z,1574528397,2019,17,0,327.7083,327.7083,66.698,-34.185,-999.00,-1.7,-999.0,no,yes,no,300234065615270,SVPGHI,AOML,BJARNI_SAEMUN,North
2019-11-23T18:00:00Z,1574532000,2019,18,0,327.75,327.75,66.7,-34.183,-999.00,-1.68,-999.0,no,yes,no,300234065615270,SVPGHI,AOML,BJARNI_SAEMUN,North
2019-11-23T19:00:02Z,1574535603,2019,19,0,327.7917,327.7917,66.699,-34.185,-999.00,-1.7,-999.0,no,yes,no,300234065615270,SVPGHI,AOML,BJARNI_SAEMUN,North
2019-11-23T19:59:57Z,1574539197,2019,20,0,327.8333,327.8333,66.699,-34.186,-999.00,-1.7,-999.0,no,yes,no,300234065615270,SVPGHI,AOML,BJARNI_SAEMUN,North
2019-11-23T21:00:00Z,1574542800,2019,21,0,327.875,327.875,66.699,-34.186,-999.00,-1.74,-999.0,no,yes,no,300234065615270,SVPGHI,AOML,BJARNI_SAEMUN,North
2019-11-23T22:00:02Z,1574546403,2019,22,0,327.9167,327.9167,66.699,-34.185,-999.00,-1.74,-999.0,no,yes,no,300234065615270,SVPGHI,AOML,BJARNI_SAEMUN,North
2019-11-23T22:59:57Z,1574549997,2019,23,0,327.9583,327.9583,66.701,-34.184,-999.00,-1.72,-999.0,no,yes,no,300234065615270,SVPGHI,AOML,BJARNI_SAEMUN,North
2019-11-24T00:00:00Z,1574553600,2019,0,0,328.0,328.0,66.699,-34.184,-999.00,-1.72,-999.0,no,yes,no,300234065615270,SVPGHI,AOML,BJARNI_SAEMUN,North
2019-11-24T01:00:02Z,1574557203,2019,1,0,328.0417,328.0417,66.698,-34.185,-999.00,-1.72,-999.0,no,yes,no,300234065615270,SVPGHI,AOML,BJARNI_SAEMUN,North
2019-11-24T01:59:57Z,1574560797,2019,2,0,328.0833,328.0833,66.698,-34.183,-999.00,-1.72,-999.0,no,yes,no,300234065615270,SVPGHI,AOML,BJARNI_SAEMUN,North
2019-11-24T03:00:00Z,1574564400,2019,3,0,328.125,328.125,66.699,-34.184,-999.00,-1.67,-999.0,no,yes,no,300234065615270,SVPGHI,AOML,BJARNI_SAEMUN,North
2019-11-24T04:00:02Z,1574568003,2019,4,0,328.1667,328.1667,66.699,-34.183,-999.00,-1.68,-999.0,no,yes,no,300234065615270,SVPGHI,AOML,BJARNI_SAEMUN,North
2019-11-24T04:59:57Z,1574571597,2019,5,0,328.2083,328.2083,66.699,-34.183,-999.00,-1.66,-999.0,no,yes,no,300234065615270,SVPGHI,AOML,BJARNI_SAEMUN,North
2019-11-24T06:00:00Z,1574575200,2019,6,0,328.25,328.25,66.699,-34.184,-999.00,-1.71,-999.0,no,yes,no,300234065615270,SVPGHI,AOML,BJARNI_SAEMUN,North
2019-11-24T07:00:02Z,1574578803,2019,7,0,328.2917,328.2917,66.699,-34.183,-999.00,-1.69,-999.0,no,yes,no,300234065615270,SVPGHI,AOML,BJARNI_SAEMUN,North
2019-11-24T07:59:57Z,1574582397,2019,8,0,328.3333,328.3333,66.7,-34.184,-999.00,-1.67,-999.0,no,yes,no,300234065615270,SVPGHI,AOML,BJARNI_SAEMUN,North
2019-11-24T09:00:00Z,1574586000,2019,9,0,328.375,328.375,66.698,-34.185,-999.00,-1.67,-999.0,no,yes,no,300234065615270,SVPGHI,AOML,BJARNI_SAEMUN,North
2019-11-24T10:00:02Z,1574589603,2019,10,0,328.4167,328.4167,66.699,-34.183,-999.00,-1.69,-999.0,no,yes,no,300234065615270,SVPGHI,AOML,BJARNI_SAEMUN,North
2019-11-24T11:03:59Z,1574593439,2019,11,4,328.4611,328.4611,66.699,-34.183,-999.00,-1.66,-999.0,no,yes,no,300234065615270,SVPGHI,AOML,BJARNI_SAEMUN,North
2019-11-24T12:00:00Z,1574596800,2019,12,0,328.5,328.5,66.699,-34.183,-999.00,-1.63,-999.0,no,yes,no,300234065615270,SVPGHI,AOML,BJARNI_SAEMUN,North
2019-11-24T13:00:02Z,1574600403,2019,13,0,328.5417,328.5417,66.699,-34.181,-999.00,-1.69,-999.0,no,yes,no,300234065615270,SVPGHI,AOML,BJARNI_SAEMUN,North
2019-11-24T13:59:57Z,1574603997,2019,14,0,328.5833,328.5833,66.699,-34.184,-999.00,-1.65,-999.0,no,yes,no,300234065615270,SVPGHI,AOML,BJARNI_SAEMUN,North
2019-11-24T15:00:00Z,1574607600,2019,15,0,328.625,328.625,66.699,-34.185,-999.00,-1.68,-999.0,no,yes,no,300234065615270,SVPGHI,AOML,BJARNI_SAEMUN,North
2019-11-24T16:00:02Z,1574611203,2019,16,0,328.6667,328.6667,66.701,-34.185,-999.00,-1.69,-999.0,no,yes,no,300234065615270,SVPGHI,AOML,BJARNI_SAEMUN,North
2019-11-24T16:59:57Z,1574614797,2019,17,0,328.7083,328.7083,66.699,-34.187,-999.00,-1.71,-999.0,no,yes,no,300234065615270,SVPGHI,AOML,BJARNI_SAEMUN,North